Regional Weather Roundup
Issued by NWS

Home | Current Version | Previous Version | Text Only | Print | Product List | Glossary On
Versions: 1 2 3 4 5 6 7 8 9 10 11 12 13 14 15 16 17 18 19 20 21 22 23 24 25 26 27
000
ASCA42 TJSJ 260910
RWRPR
PUERTO RICO/U.S. VIRGIN ISLANDS HOURLY WEATHER ROUNDUP
NATIONAL WEATHER SERVICE SAN JUAN PR
500 AM AST SUN FEB 26 2017

PRZ001>002-007>008-010-261000-
PUERTO RICO

CITY           SKY/WX    TMP DP  RH WIND       PRES   REMARKS
SAN JUAN LMM   PTCLDY    75  72  88 CALM      29.99S
PONCE          CLEAR     70  64  83 NE6       30.00S
AGUADILLA      CLEAR     68  64  88 SE5       30.00R
CEIBA          CLOUDY    75  72  88 CALM      30.01S
$$

VIZ001>002-261000-
U.S. VIRGIN ISLANDS

CITY           SKY/WX    TMP DP  RH WIND       PRES   REMARKS
CHARLOTTE AMA  CLEAR     73  70  88 E7        29.98S
CHRISTIANSTED  CLEAR     72  68  88 N3        29.99S
$$

HOURLY WEATHER ROUNDUP FOR THE NEWS MEDIA

CITY           SKY/WX    TMP DP  RH WIND       PRES   REMARKS
ORLANDO        CLEAR     64  59  83 N7        30.04R
NEW YORK       MOCLDY    43  28  55 NW20G26   29.78R
NEWARK         CLOUDY    41  25  53 NW18G25   29.79R
CHICAGO        CLOUDY    24  17  74 S6        30.03F WCI  17
HARTFORD       CLOUDY    43  31  62 W10G24    29.61R
BOSTON         CLOUDY    42  31  64 W20G32    29.59R
DALLAS         MOCLDY    44  26  49 SE9       30.01F
PHILADELPHIA   PTCLDY    39  20  46 W14       29.88R WCI  31
LOS ANGELES    MOCLDY    52  44  74 W10       30.00F
WASHINGTON DC  PTCLDY    34  17  50 W10       29.97R WCI  26



USA.gov is the U.S. government's official web portal to all federal, state and local government web resources and services.